This is the latest recevied weather packets stored in our database for station/object JH7UAX-10. If no packets are shown the sender has not sent any weather packets the latest 10 day(s).
| Time | Temp. | Humidity | Pressure | Rain* | Wind** | Luminosity | Snow |
|---|---|---|---|---|---|---|---|
| 1777567077 | 5.56° C | 76% | 1028.4 hPa | 0 mm | - | - | - |
| 1777566179 | 6.67° C | 76% | 1028.8 hPa | 0 mm | - | - | - |
| 1777565706 | 6.67° C | 77% | 1028.9 hPa | 0 mm | - | - | - |
| 1777565278 | 6.67° C | 76% | 1029.1 hPa | 0 mm | - | - | - |
| 1777564377 | 7.78° C | 76% | 1029.2 hPa | 0 mm | - | - | - |
| 1777563905 | 7.78° C | 76% | 1029.4 hPa | 0 mm | - | - | - |
| 1777563477 | 7.78° C | 75% | 1029.5 hPa | 0 mm | - | - | - |
| 1777563005 | 7.78° C | 75% | 1029.9 hPa | 0 mm | - | - | - |
| 1777562577 | 6.67° C | 75% | 1030.1 hPa | 0 mm | - | - | - |
| 1777561679 | 6.67° C | 72% | 1030.2 hPa | 0 mm | - | - | - |
| 1777561205 | 6.67° C | 71% | 1030.3 hPa | 0 mm | - | - | - |
| 1777560779 | 7.22° C | 70% | 1030.3 hPa | 0 mm | - | - | - |
| 1777560305 | 7.22° C | 71% | 1030.3 hPa | 0 mm | - | - | - |
| 1777559878 | 7.22° C | 70% | 1030.5 hPa | 0 mm | - | - | - |
| 1777559405 | 7.78° C | 69% | 1030.7 hPa | 0 mm | - | - | - |
| 1777558978 | 7.78° C | 68% | 1030.9 hPa | 0 mm | - | - | - |
| 1777558504 | 7.78° C | 70% | 1031 hPa | 0 mm | - | - | - |
| 1777558078 | 7.78° C | 71% | 1031 hPa | 0 mm | - | - | - |
| 1777557179 | 7.22° C | 76% | 1031.3 hPa | 0 mm | - | - | - |
| 1777556704 | 7.22° C | 76% | 1031.4 hPa | 0 mm | - | - | - |
| 1777556278 | 7.22° C | 75% | 1031.3 hPa | 0 mm | - | - | - |
| 1777555378 | 8.33° C | 71% | 1031.5 hPa | 0 mm | - | - | - |
| 1777554478 | 8.33° C | 68% | 1031.7 hPa | 0 mm | - | - | - |
| 1777553578 | 8.33° C | 65% | 1031.9 hPa | 0 mm | - | - | - |
| 1777553106 | 8.33° C | 65% | 1031.9 hPa | 0 mm | - | - | - |
* Rain latest hour (hover to see other rain measurements)
** Current wind speed in m/s (hover to see current wind gust speed)